User: anonymous   Login
Location: Breungeshain
(50.5000°N, 9.2000°E)
Time: 08:18:40
(UTC+00:00)
Language:

ISS - Orbit

View from above orbital plane
View from above orbital plane
View from above satellite
View from above satellite

Ground track
Ground track

The orbit data is extracted from the following two-line orbital elements,

1 25544U 98067A   18293.54446346  .00016717  00000-0  10270-3 0  9017
2 25544  51.6363 114.0299 0004031 311.5402  48.5404 15.53817924 18005
Epoch (UTC): 20 October 2018 13:04:01
Eccentricity: 0.0004031
inclination: 51.6363°
perigee height: 403 km
apogee height: 408 km
right ascension of ascending node: 114.0299°
argument of perigee: 311.5402°
revolutions per day: 15.53817924
mean anomaly at epoch: 48.5404°
orbit number at epoch: 1800

The dashed part of the orbit path shows where the satellite is in the earth's shadow,  

DLR